DW6462 Weather Reports


time (UTC)temp
C
wind
direction
speed
KPH
gust
KPH
rain 1hr
cm
rain 24hr
cm
rain mn
cm
humidity
%
barometer
mb
20260504150833 21 187 6.4 20.9 0.00 0.00 0.00 63 1010.8
20260504150348 21 204 12.9 22.5 0.00 0.00 0.00 62 1010.8
20260504140836 19 211 9.7 19.3 0.00 0.00 0.00 68 1011.3
20260504140350 19 224 8.0 19.3 0.00 0.00 0.00 68 1011.3
20260504130348 17 207 8.0 16.1 0.00 0.00 0.00 75 1011.2
20260504110334 16 207 3.2 12.9 0.00 0.00 0.00 70 1010.8
20260504100351 17 169 9.7 14.5 0.00 0.00 0.00 66 1010.7
20260504081339 17 188 12.9 22.5 0.00 0.00 0.00 63 1010.6
20260504080352 17 190 3.2 17.7 0.00 0.00 0.00 63 1010.7
20260504070342 16 161 1.6 4.8 0.00 0.00 0.00 60 1011.0
20260504050343 15 103 0.0 0.0 0.00 0.00 0.00 62 1012.1
20260504045840 15 103 0.0 1.6 0.00 0.00 0.00 61 1012.1
20260504045334 15 103 0.0 1.6 0.00 0.00 0.00 61 1012.2
20260504044848 15 103 0.0 1.6 0.00 0.00 0.00 60 1012.2
20260504044343 15 103 0.0 1.6 0.00 0.00 0.00 60 1012.3
20260504043843 15 103 0.0 1.6 0.00 0.00 0.00 60 1012.3
20260504042835 15 98 0.0 0.0 0.00 0.00 0.00 60 1012.4
20260504042349 15 98 0.0 0.0 0.00 0.00 0.00 60 1012.4
20260504041843 15 98 0.0 0.0 0.00 0.00 0.00 59 1012.4
20260504041337 15 98 0.0 0.0 0.00 0.00 0.00 59 1012.5
20260504040348 15 98 0.0 0.0 0.00 0.00 0.00 59 1012.5
20260504035843 15 98 0.0 0.0 0.00 0.00 0.00 59 1012.5
20260504035338 15 98 0.0 0.0 0.00 0.00 0.00 60 1012.5
20260504034852 15 98 0.0 0.0 0.00 0.00 0.00 60 1012.6
20260504034346 15 98 0.0 0.0 0.00 0.00 0.00 58 1012.6
20260504033841 15 98 0.0 0.0 0.00 0.00 0.00 59 1012.6
20260504033335 15 98 0.0 0.0 0.00 0.00 0.00 58 1012.8
20260504032347 15 97 0.0 1.6 0.00 0.00 0.00 58 1012.8
20260504031841 15 96 0.0 1.6 0.00 0.00 0.00 58 1013.0
20260504031335 16 92 0.0 0.0 0.00 0.00 0.00 57 1013.0
20260504030850 16 92 0.0 0.0 0.00 0.00 0.00 57 1013.0
20260504030345 16 92 0.0 0.0 0.00 0.00 0.00 56 1013.0
20260504025840 16 92 0.0 1.6 0.00 0.00 0.00 58 1012.9
20260504025337 16 91 0.0 3.2 0.00 0.00 0.00 60 1012.7
20260504024349 17 131 1.6 17.7 0.00 0.00 0.00 59 1012.6
20260504023843 17 183 3.2 14.5 0.00 0.00 0.00 60 1012.6
20260504023338 17 193 9.7 14.5 0.00 0.00 0.00 62 1012.5
20260504022833 17 175 4.8 8.0 0.00 0.00 0.00 58 1012.6
20260504022346 17 190 3.2 8.0 0.00 0.00 0.00 56 1012.5
20260504021841 17 163 3.2 8.0 0.00 0.00 0.00 57 1012.3
20260504021334 17 163 1.6 8.0 0.00 0.00 0.00 55 1012.2
20260504020849 17 174 3.2 6.4 0.00 0.00 0.00 55 1012.2
20260504020341 17 166 1.6 6.4 0.00 0.00 0.00 53 1012.1
20260504015351 17 167 3.2 4.8 0.00 0.00 0.00 55 1012.3
20260504014846 17 187 0.0 4.8 0.00 0.00 0.00 54 1012.4
20260504014338 17 245 0.0 3.2 0.00 0.00 0.00 53 1012.3
20260504013351 17 175 1.6 4.8 0.00 0.00 0.00 52 1012.4
20260504012846 17 186 0.0 3.2 0.00 0.00 0.00 52 1012.5
20260504012339 17 144 0.0 3.2 0.00 0.00 0.00 52 1012.4
20260504011834 17 144 0.0 3.2 0.00 0.00 0.00 52 1012.4
20260504011348 17 200 0.0 3.2 0.00 0.00 0.00 51 1012.5
20260504010845 18 158 0.0 3.2 0.00 0.00 0.00 51 1012.5
20260504005839 18 153 1.6 4.8 0.00 0.00 0.00 49 1012.5
20260504004348 18 111 1.6 16.1 0.00 0.00 0.00 50 1012.6
20260504003840 20 232 8.0 16.1 0.00 0.00 0.00 54 1012.6
20260504003334 20 200 6.4 19.3 0.00 0.00 0.00 52 1012.6
20260504002848 20 221 11.3 19.3 0.00 0.00 0.00 51 1012.7
20260504002342 20 170 9.7 17.7 0.00 0.00 0.00 49 1012.7
20260504001837 20 215 11.3 24.1 0.00 0.00 0.00 49 1012.6
20260504001352 20 218 8.0 24.1 0.00 0.00 0.00 51 1012.6
20260504000846 20 188 14.5 20.9 0.00 0.00 0.00 49 1012.6
20260503235838 20 196 11.3 22.5 0.00 0.00 0.00 50 1012.8
20260503235332 20 207 12.9 22.5 0.00 0.00 0.00 47 1012.8
20260503234847 20 165 11.3 20.9 0.00 0.00 0.00 52 1012.8
20260503234343 20 205 12.9 20.9 0.00 0.00 0.00 51 1012.8
20260503231339 20 198 12.9 25.7 0.00 0.00 0.00 47 1013.3
20260503230834 20 199 12.9 22.5 0.00 0.00 0.00 48 1013.4
20260503225843 21 190 8.0 24.1 0.00 0.00 0.00 46 1013.5
20260503225337 20 176 11.3 25.7 0.00 0.00 0.00 52 1013.4
20260503224851 20 207 14.5 29.0 0.00 0.00 0.00 50 1013.5
20260503223842 21 183 9.7 20.9 0.00 0.00 0.00 44 1013.7
20260503222834 21 220 11.3 20.9 0.00 0.00 0.00 48 1013.7
20260503222348 21 184 6.4 20.9 0.00 0.00 0.00 46 1013.9
20260503221846 21 218 8.0 25.7 0.00 0.00 0.00 50 1014.0
20260503221342 20 189 14.5 25.7 0.00 0.00 0.00 48 1014.1
20260503220337 21 175 6.4 17.7 0.00 0.00 0.00 47 1014.3
20260503215832 21 186 8.0 16.1 0.00 0.00 0.00 48 1014.3
20260503215346 20 184 8.0 16.1 0.00 0.00 0.00 47 1014.4
20260503214338 20 175 9.7 22.5 0.00 0.00 0.00 49 1014.7
20260503213832 20 211 9.7 24.1 0.00 0.00 0.00 47 1014.7
20260503213348 20 178 12.9 24.1 0.00 0.00 0.00 52 1014.8
20260503212843 20 195 11.3 24.1 0.00 0.00 0.00 49 1014.7
20260503212337 20 230 11.3 27.4 0.00 0.00 0.00 45 1014.9
20260503211852 20 211 17.7 27.4 0.00 0.00 0.00 45 1015.0
20260503211346 20 200 14.5 30.6 0.00 0.00 0.00 46 1015.2
20260503210840 20 217 14.5 30.6 0.00 0.00 0.00 47 1015.3
20260503205852 20 183 11.3 22.5 0.00 0.00 0.00 44 1015.5
20260503204841 20 216 14.5 27.4 0.00 0.00 0.00 45 1015.5
20260503204336 20 185 8.0 22.5 0.00 0.00 0.00 45 1015.7
20260503203849 20 176 11.3 22.5 0.00 0.00 0.00 47 1016.0
20260503203344 20 184 11.3 17.7 0.00 0.00 0.00 45 1016.1
20260503202843 19 188 11.3 20.9 0.00 0.00 0.00 46 1016.2
20260503202337 20 261 12.9 22.5 0.00 0.00 0.00 51 1016.3
20260503201853 19 254 14.5 22.5 0.00 0.00 0.00 47 1016.3
20260503201347 19 205 12.9 22.5 0.00 0.00 0.00 46 1016.5
20260503200842 19 211 8.0 22.5 0.00 0.00 0.00 50 1016.5
20260503195834 19 204 12.9 20.9 0.00 0.00 0.00 45 1016.8
20260503195349 19 252 12.9 20.9 0.00 0.00 0.00 49 1016.9
20260503194843 19 190 9.7 29.0 0.00 0.00 0.00 45 1016.9
20260503193835 19 212 6.4 22.5 0.00 0.00 0.00 43 1017.1
20260503193348 19 161 12.9 22.5 0.00 0.00 0.00 46 1017.3
20260503192843 18 228 8.0 24.1 0.00 0.00 0.00 47 1017.4
20260503192338 18 185 14.5 29.0 0.00 0.00 0.00 46 1017.4
20260503191833 18 214 17.7 25.7 0.00 0.00 0.00 46 1017.6
20260503190842 18 192 9.7 27.4 0.00 0.00 0.00 47 1017.8
20260503185834 18 174 4.8 20.9 0.00 0.00 0.00 46 1018.1
20260503185349 18 197 4.8 20.9 0.00 0.00 0.00 51 1018.2
20260503184844 18 219 6.4 27.4 0.00 0.00 0.00 47 1018.3
20260503184339 18 215 12.9 27.4 0.00 0.00 0.00 50 1018.4
20260503183837 18 194 3.2 22.5 0.00 0.00 0.00 45 1018.5
20260503183350 18 196 6.4 25.7 0.00 0.00 0.00 46 1018.7
20260503182847 18 226 12.9 25.7 0.00 0.00 0.00 51 1018.7
20260503182341 17 252 11.3 17.7 0.00 0.00 0.00 44 1018.9
20260503181333 17 263 9.7 20.9 0.00 0.00 0.00 48 1019.0
20260503180846 18 210 6.4 20.9 0.00 0.00 0.00 50 1019.0
20260503180340 17 188 6.4 19.3 0.00 0.00 0.00 48 1019.0
20260503175833 17 173 6.4 11.3 0.00 0.00 0.00 50 1019.0
20260503175347 17 172 4.8 16.1 0.00 0.00 0.00 49 1019.1
20260503174842 17 194 4.8 16.1 0.00 0.00 0.00 46 1019.2
20260503174337 17 134 3.2 12.9 0.00 0.00 0.00 47 1019.3
20260503173834 17 210 6.4 12.9 0.00 0.00 0.00 51 1019.3
20260503173350 17 169 3.2 16.1 0.00 0.00 0.00 50 1019.5
20260503172841 16 221 11.3 20.9 0.00 0.00 0.00 57 1019.5